When you browse on this site, cookies collect data to enhance your experience and personalize the content and advertising you see.
Visit our Privacy Policy to learn more. By continuing to use the site, you agree to this use of cookies and data.
  • In Sweden
  • List of Countries
  • For 7 days
  • Water Temperature
  • Satellite Maps
  • Weather Map
  • Weather Widgets
  • user-avatar
    Login

    Hourly Weather Iva

    Today, 19 May, Sunday

    Time Temperature Precipitation Wind Pressure Humidity
    00:00 +9°C° 0 mm 2 mps 745 mmHg 75%
    01:00 +8°C° 0 mm 2 mps 745 mmHg 75%
    02:00 +8°C° 0 mm 2 mps 745 mmHg 75%
    03:00 +8°C° 0 mm 1 mps 744 mmHg 71%
    04:00 +8°C° 0 mm 2 mps 745 mmHg 71%
    05:00 +9°C° 0 mm 2 mps 745 mmHg 72%
    06:00 +9°C° 0 mm 3 mps 745 mmHg 72%
    07:00 +10°C° 0 mm 3 mps 745 mmHg 70%
    08:00 +12°C° 0 mm 4 mps 745 mmHg 68%
    09:00 +13°C° 0 mm 4 mps 745 mmHg 66%
    10:00 +13°C° 0 mm 5 mps 745 mmHg 61%
    11:00 +14°C° 0 mm 5 mps 745 mmHg 57%
    12:00 +14°C° 0 mm 5 mps 745 mmHg 53%
    13:00 +14°C° 0 mm 5 mps 745 mmHg 52%
    14:00 +15°C° 0 mm 5 mps 745 mmHg 51%
    15:00 +15°C° 0 mm 5 mps 745 mmHg 50%
    16:00 +14°C° 0 mm 5 mps 745 mmHg 54%
    17:00 +13°C° 0 mm 4 mps 745 mmHg 58%
    18:00 +13°C° 0 mm 3 mps 746 mmHg 62%
    19:00 +11°C° 0 mm 3 mps 746 mmHg 65%
    20:00 +10°C° 0 mm 2 mps 746 mmHg 67%
    21:00 +8°C° 0 mm 2 mps 747 mmHg 70%
    22:00 +7°C° 0 mm 2 mps 747 mmHg 71%
    23:00 +7°C° 0 mm 2 mps 747 mmHg 71%

    Tomorrow, 20 May, Monday

    Time Temperature Precipitation Wind Pressure Humidity
    00:00 +6°C° 0 mm 2 mps 747 mmHg 72%
    01:00 +6°C° 0 mm 2 mps 748 mmHg 73%
    02:00 +5°C° 0 mm 2 mps 748 mmHg 73%
    03:00 +5°C° 0 mm 2 mps 749 mmHg 74%
    04:00 +5°C° 0 mm 2 mps 749 mmHg 73%
    05:00 +6°C° 0 mm 2 mps 749 mmHg 73%
    06:00 +6°C° 0 mm 2 mps 749 mmHg 73%
    07:00 +8°C° 0 mm 3 mps 749 mmHg 66%
    08:00 +10°C° 0 mm 4 mps 749 mmHg 60%
    09:00 +12°C° 0 mm 4 mps 749 mmHg 53%
    10:00 +13°C° 0 mm 4 mps 749 mmHg 52%
    11:00 +13°C° 0 mm 4 mps 749 mmHg 51%
    12:00 +14°C° 0 mm 4 mps 749 mmHg 50%
    13:00 +14°C° 0 mm 4 mps 749 mmHg 49%
    14:00 +15°C° 0 mm 5 mps 749 mmHg 49%
    15:00 +15°C° 0 mm 5 mps 749 mmHg 48%
    16:00 +15°C° 0 mm 4 mps 749 mmHg 52%
    17:00 +16°C° 0 mm 3 mps 749 mmHg 57%
    18:00 +14°C° 0 mm 3 mps 749 mmHg 61%
    19:00 +14°C° 0 mm 2 mps 749 mmHg 64%
    20:00 +12°C° 0 mm 2 mps 749 mmHg 67%
    21:00 +10°C° 0 mm 1 mps 749 mmHg 70%
    22:00 +9°C° 0 mm 1 mps 750 mmHg 71%
    23:00 +9°C° 0 mm 1 mps 750 mmHg 72%

    Day after tomorrow, 21 May, Tuesday

    Time Temperature Precipitation Wind Pressure Humidity
    00:00 +8°C° 0 mm 1 mps 750 mmHg 74%
    01:00 +8°C° 0 mm 1 mps 750 mmHg 75%
    02:00 +7°C° 0 mm 1 mps 751 mmHg 76%
    03:00 +7°C° 0 mm 1 mps 751 mmHg 77%
    04:00 +8°C° 0 mm 1 mps 751 mmHg 76%
    05:00 +9°C° 0 mm 1 mps 751 mmHg 74%
    06:00 +8°C° 0 mm 2 mps 751 mmHg 73%
    07:00 +10°C° 0 mm 2 mps 751 mmHg 66%
    08:00 +13°C° 0 mm 2 mps 751 mmHg 60%
    09:00 +14°C° 0 mm 2 mps 751 mmHg 53%
    10:00 +15°C° 0 mm 2 mps 751 mmHg 50%
    11:00 +16°C° 0 mm 2 mps 751 mmHg 46%
    12:00 +17°C° 0 mm 2 mps 751 mmHg 43%
    13:00 +17°C° 0 mm 2 mps 751 mmHg 43%
    14:00 +18°C° 0 mm 2 mps 751 mmHg 43%
    15:00 +18°C° 0 mm 2 mps 750 mmHg 43%
    16:00 +18°C° 0 mm 2 mps 750 mmHg 48%
    17:00 +18°C° 0 mm 2 mps 750 mmHg 52%
    18:00 +18°C° 0 mm 2 mps 749 mmHg 57%
    19:00 +16°C° 0 mm 2 mps 749 mmHg 61%
    20:00 +15°C° 0 mm 2 mps 749 mmHg 64%
    21:00 +13°C° 0 mm 2 mps 749 mmHg 68%
    22:00 +12°C° 0 mm 3 mps 748 mmHg 66%
    23:00 +11°C° 0 mm 3 mps 748 mmHg 64%

    22 May, Wednesday

    Time Temperature Precipitation Wind Pressure Humidity
    00:00 +11°C° 0 mm 4 mps 748 mmHg 62%
    01:00 +11°C° 0 mm 4 mps 748 mmHg 70%
    02:00 +11°C° 0 mm 4 mps 748 mmHg 77%
    03:00 +11°C° 0 mm 4 mps 748 mmHg 84%
    04:00 +12°C° 0 mm 4 mps 748 mmHg 85%
    05:00 +12°C° 0 mm 4 mps 747 mmHg 85%
    06:00 +13°C° 0 mm 4 mps 747 mmHg 85%
    07:00 +15°C° 0 mm 5 mps 747 mmHg 80%
    08:00 +17°C° 0 mm 5 mps 747 mmHg 75%
    09:00 +19°C° 0 mm 5 mps 747 mmHg 70%
    10:00 +20°C° 0.2 mm 5 mps 747 mmHg 66%
    11:00 +21°C° 0.2 mm 5 mps 746 mmHg 63%
    12:00 +22°C° 0.2 mm 5 mps 746 mmHg 59%
    13:00 +22°C° 0 mm 5 mps 746 mmHg 57%
    14:00 +22°C° 0 mm 5 mps 745 mmHg 55%
    15:00 +23°C° 0 mm 5 mps 745 mmHg 53%
    16:00 +22°C° 0 mm 5 mps 745 mmHg 58%
    17:00 +21°C° 0 mm 4 mps 744 mmHg 62%
    18:00 +21°C° 0 mm 3 mps 744 mmHg 67%
    19:00 +19°C° 0 mm 3 mps 744 mmHg 71%
    20:00 +17°C° 0 mm 3 mps 744 mmHg 76%
    21:00 +16°C° 0 mm 3 mps 744 mmHg 80%
    22:00 +14°C° 0 mm 3 mps 744 mmHg 81%
    23:00 +14°C° 0 mm 4 mps 743 mmHg 83%

    23 May, Thursday

    Time Temperature Precipitation Wind Pressure Humidity
    00:00 +13°C° 0 mm 4 mps 743 mmHg 84%
    01:00 +13°C° 0 mm 4 mps 743 mmHg 85%
    02:00 +12°C° 0 mm 4 mps 743 mmHg 86%
    03:00 +12°C° 0 mm 4 mps 742 mmHg 88%
    04:00 +13°C° 0 mm 4 mps 742 mmHg 85%
    05:00 +13°C° 0 mm 4 mps 742 mmHg 82%
    06:00 +14°C° 0 mm 4 mps 741 mmHg 80%
    07:00 +16°C° 0 mm 5 mps 741 mmHg 73%
    08:00 +17°C° 0 mm 5 mps 741 mmHg 67%
    09:00 +20°C° 0 mm 6 mps 741 mmHg 61%
    10:00 +21°C° 0 mm 6 mps 741 mmHg 57%
    11:00 +21°C° 0 mm 6 mps 740 mmHg 54%
    12:00 +22°C° 0 mm 6 mps 740 mmHg 51%
    13:00 +22°C° 0 mm 5 mps 739 mmHg 52%
    14:00 +23°C° 0 mm 5 mps 739 mmHg 52%
    15:00 +23°C° 0 mm 5 mps 738 mmHg 53%
    16:00 +22°C° 0.3 mm 4 mps 738 mmHg 59%
    17:00 +22°C° 0.3 mm 3 mps 738 mmHg 65%
    18:00 +21°C° 0.3 mm 2 mps 738 mmHg 71%
    19:00 +20°C° 0.3 mm 2 mps 737 mmHg 76%
    20:00 +18°C° 0.3 mm 2 mps 737 mmHg 81%
    21:00 +16°C° 0.3 mm 2 mps 737 mmHg 86%
    22:00 +16°C° 0 mm 2 mps 737 mmHg 88%
    23:00 +15°C° 0 mm 2 mps 737 mmHg 90%

    24 May, Friday

    Time Temperature Precipitation Wind Pressure Humidity
    00:00 +15°C° 0 mm 2 mps 736 mmHg 92%
    01:00 +15°C° 0 mm 2 mps 736 mmHg 92%
    02:00 +14°C° 0 mm 2 mps 736 mmHg 93%
    03:00 +14°C° 0 mm 1 mps 736 mmHg 93%
    04:00 +15°C° 0 mm 1 mps 736 mmHg 92%
    05:00 +15°C° 0 mm 1 mps 736 mmHg 91%
    06:00 +16°C° 0 mm 1 mps 736 mmHg 90%
    07:00 +18°C° 0.5 mm 1 mps 736 mmHg 85%
    08:00 +20°C° 0.5 mm 1 mps 736 mmHg 80%
    09:00 +21°C° 0.5 mm 1 mps 736 mmHg 75%
    10:00 +20°C° 1.2 mm 2 mps 736 mmHg 74%
    11:00 +21°C° 1.2 mm 2 mps 736 mmHg 73%
    12:00 +21°C° 1.2 mm 3 mps 736 mmHg 72%
    13:00 +20°C° 0.7 mm 4 mps 736 mmHg 75%
    14:00 +20°C° 0.7 mm 5 mps 736 mmHg 78%
    15:00 +19°C° 0.7 mm 6 mps 737 mmHg 80%
    16:00 +17°C° 0 mm 6 mps 737 mmHg 81%
    17:00 +15°C° 0 mm 6 mps 737 mmHg 83%
    18:00 +14°C° 0 mm 6 mps 737 mmHg 84%
    19:00 +13°C° 0 mm 6 mps 738 mmHg 84%
    20:00 +11°C° 0 mm 6 mps 738 mmHg 84%
    21:00 +10°C° 0 mm 5 mps 739 mmHg 83%
    22:00 +9°C° 0 mm 5 mps 739 mmHg 83%
    23:00 +9°C° 0 mm 5 mps 739 mmHg 82%
    Show more